STARLINK-31537, 59365

Orbit data source: Space-Track

STARLINK-31537, 59365 is a payload satellite owned by SpaceX/Seattle (US) in LEO that was launched on Sun, 31 Mar 2024 UTC via an FALCON 9 launch vehicle from the Air Force Eastern Test Range (AFETR). Payload-class satellites include a variety of spacecraft equipped with specific instruments for various scientific and technological missions. These include communications satellites like Starlink; space stations such as the ISS; scientific satellites like the Hubble; Earth observation satellites from companies like Planet Labs, Umbra, and HawkEye 360; GPS; miniature CubeSats for education and research; and military/defense satellites.

Loading next visibility...
Identifier
59365, 2024-060T
Orbit
LEO
Country
Flag of USUS
Related business
Manufacturer
SpaceX/Seattle
Mission
Operational Commercial Communications
Bus & Motor
STARLINK V2M, Unknown motor
Mass
730 kg wet, ~700 kg dry
Launch date (UTC)
2024-03-31 (2 years ago)
Launch vehicle
FALCON 9
Launch site
Air Force Eastern Test Range (AFETR)
Object type
Payload
Rocket body
Debris
Shape & HBR
Box + 2 Pan, 17.7 m
Radar Cross Section
33.884 m², Large (>1 m²)

Expand to show TLE details & history
Last TLE update: 2 days ago

TLE from 2 days ago
0 STARLINK-31537
1 59365U 24060T   26170.98140582 -.00005157  00000-0 -17792-3 0  9992
2 59365  43.0034  42.4556 0002790 250.9046 109.1503 15.27589951125700
Epoch: 2026-06-19T23:33Z
TLE epoch observation values (Epoch: 2026-06-19T23:33:13.462Z)
Latitude
-0.00008°
Longitude
140.94684°
Altitude
483.423 km
Speed
7.625 km/s
True Right ascension
02h 49m 49s
True Declination
0° 00' 00"
Sunlit
Object was in daylight at epoch
Visualization orbit readout
Latitude
Unknown
Longitude
Unknown
Altitude
Unknown
Speed
Unknown
Apparent Right ascension
Unknown
Apparent Declination
Unknown
Sunlit
N/A
Visualization observer readout
Local Sidereal Time
21:52:14
Azimuth
Unknown
Elevation
Unknown
Doppler factor
Unknown
Orbital elements
Apogee altitude
486.879 km
Perigee altitude
483.049 km
Semi-major axis
6,863.101 km
Eccentricity
0.00028
Inclination
43.0034°
RAAN
42.4556°
Arg. of periapsis
250.9046°
True anomaly
109.1805°
Mean anomaly
109.1503°
Eccentric anomaly
109.1654°
Mean motion
3.81736 °/min
Orbital period
94.31 mins
BSTAR
-0.00017792
Loading maneuver chart data...
Computing Atmospheric mass density...
Loading historical data...
Loading historical data...
Loading historical data...
Loading historical data...
Loading historical data...
Loading historical data...
Loading historical data...

Documentation

Showing up to 5 results
|